Weather History for KL38 - September, 2013

Change the Weather History Date:

Wednesday, September 4, 2013

  Actual Average (KBTR) Record (KBTR)
Temperature  
Mean Temperature 82 °F 82 °F  
Max Temperature 91 °F 91 °F 104 °F (2000)
Min Temperature 72 °F 72 °F 58 °F (1952)
Degree Days  
Heating Degree Days 0 0  
Month to date heating degree days 0  
Since 1 July heating degree days 0  
Cooling Degree Days 16 16  
Month to date cooling degree days 67  
Year to date cooling degree days 2228  
Growing Degree Days 32 (Base 50)    
Moisture  
Dew Point 74 °F    
Average Humidity 84    
Maximum Humidity 98    
Minimum Humidity 56    
Precipitation  
Precipitation 0.65 in 0.17 in 3.69 in (1988)
Month to date precipitation 0.67  
Year to date precipitation 42.38  
Snow  
Snow 0.00 in - - ()
Month to date snowfall  
Since 1 July snowfall  
Since 1 September snowfall  
Snow Depth -    
Sea Level Pressure  
Sea Level Pressure 30.01 in    
Wind  
Wind Speed 1 mph (WSW)    
Max Wind Speed 9 mph    
Max Gust Speed 23 mph    
Visibility 10 miles    
Events Rain , Thunderstorm    
T = Trace of Precipitation, MM = Missing Value Source: NWS Daily Summary

Daily Weather History Graph

Daily Weather History Graph

Search for Another Location

Airport or City:

Trip Planner

Search our weather history database for the weather conditions in past years. The results will help you decide how hot, cold, wet, or windy it might be!

Date:

Astronomy

Sep. 04, 2013 Rise Set
Actual Time 6:42 AM CDT 7:22 PM CDT
Civil Twilight 6:18 AM CDT 7:46 PM CDT
Nautical Twilight 5:49 AM CDT 8:15 PM CDT
Astronomical Twilight 5:20 AM CDT 8:44 PM CDT
Moon 5:54 AM CDT (9/4) 6:44 PM CDT (9/4)
Length of Visible Light 13h 28m
Length of Day
12h 39m
Waning Crescent, 1% of the Moon is Illuminated
Sep 4
Waning Crescent
Sep 5
New
Sep 12
First Quarter
Sep 19
Full
Sep 26
Last Quarter

Hourly Weather History & Observations

Time (CDT) Temp. Heat Index Dew Point Humidity Pressure Visibility Wind Dir Wind Speed Gust Speed Precip Events Conditions
12:15 AM 76.5 °F - 71.8 °F 85% 29.95 in 10.0 mi SSW 4.6 mph - N/A   Clear
12:35 AM 76.1 °F - 71.6 °F 86% 29.95 in 10.0 mi SW 3.5 mph - N/A   Clear
12:55 AM 76.1 °F - 71.8 °F 86% 29.96 in 10.0 mi Calm Calm - N/A   Clear
1:15 AM 75.6 °F - 72.1 °F 89% 29.95 in 10.0 mi NNW 4.6 mph - N/A   Clear
1:35 AM 75.4 °F - 72.7 °F 91% 29.95 in 10.0 mi Calm Calm - N/A   Clear
1:55 AM 75.9 °F - 72.9 °F 90% 29.96 in 10.0 mi ESE 4.6 mph - N/A   Scattered Clouds
2:15 AM 76.1 °F - 72.5 °F 89% 29.96 in 10.0 mi Calm Calm - N/A   Scattered Clouds
2:35 AM 76.1 °F - 72.5 °F 89% 29.96 in 10.0 mi Calm Calm - N/A   Clear
2:55 AM 75.4 °F - 72.5 °F 91% 29.96 in 10.0 mi North 3.5 mph - N/A   Clear
3:15 AM 74.3 °F - 72.0 °F 92% 29.95 in 10.0 mi Calm Calm - N/A   Clear
3:35 AM 74.7 °F - 72.1 °F 92% 29.95 in 10.0 mi Calm Calm - N/A   Clear
3:55 AM 73.9 °F - 72.3 °F 95% 29.96 in 10.0 mi Calm Calm - N/A   Clear
4:15 AM 73.4 °F - 71.8 °F 95% 29.95 in 10.0 mi Calm Calm - N/A   Clear
4:35 AM 73.6 °F - 72.1 °F 95% 29.95 in 10.0 mi Calm Calm - N/A   Clear
4:55 AM 72.9 °F - 71.6 °F 96% 29.96 in 10.0 mi Calm Calm - N/A   Clear
5:15 AM 73.0 °F - 71.8 °F 96% 29.96 in 10.0 mi South 3.5 mph - N/A   Clear
5:35 AM 73.0 °F - 72.0 °F 96% 29.97 in 10.0 mi Calm Calm - N/A   Clear
5:55 AM 73.6 °F - 72.5 °F 96% 29.98 in 10.0 mi Calm Calm - N/A   Clear
6:15 AM 73.0 °F - 71.6 °F 95% 29.98 in 10.0 mi Calm Calm - N/A   Clear
6:35 AM 72.9 °F - 71.6 °F 96% 29.99 in 10.0 mi Calm Calm - N/A   Clear
6:55 AM 73.0 °F - 72.0 °F 96% 30.00 in 10.0 mi Calm Calm - N/A   Clear
7:15 AM 72.5 °F - 71.6 °F 97% 30.00 in 10.0 mi Calm Calm - N/A   Clear
7:35 AM 74.1 °F - 72.9 °F 96% 30.02 in 10.0 mi Calm Calm - N/A   Clear
7:55 AM 75.9 °F - 73.9 °F 94% 30.02 in 10.0 mi Calm Calm - N/A   Clear
8:15 AM 77.7 °F - 74.7 °F 90% 30.02 in 10.0 mi Calm Calm - N/A   Clear
8:35 AM 79.2 °F - 75.0 °F 87% 30.03 in 10.0 mi Calm Calm - N/A   Clear
8:55 AM 80.8 °F 86.5 °F 75.0 °F 83% 30.04 in 10.0 mi Calm Calm - N/A   Clear
9:15 AM 82.0 °F 88.9 °F 75.2 °F 80% 30.05 in 10.0 mi Calm Calm - N/A   Clear
9:35 AM 82.9 °F 89.9 °F 74.7 °F 76% 30.05 in 10.0 mi Calm Calm - N/A   Clear
9:55 AM 83.8 °F 91.1 °F 74.5 °F 73% 30.05 in 10.0 mi Calm Calm - N/A   Clear
10:15 AM 85.1 °F 92.9 °F 74.5 °F 70% 30.05 in 10.0 mi Calm Calm - N/A   Clear
10:35 AM 85.3 °F 93.7 °F 74.8 °F 71% 30.06 in 10.0 mi Calm Calm - N/A   Clear
10:55 AM 86.9 °F 96.8 °F 75.6 °F 69% 30.06 in 10.0 mi Calm Calm - N/A   Clear
11:15 AM 88.0 °F 98.5 °F 75.9 °F 67% 30.05 in 10.0 mi Calm Calm - N/A   Clear
11:35 AM 88.5 °F 97.8 °F 74.3 °F 63% 30.05 in 10.0 mi ESE 3.5 mph - N/A   Clear
11:55 AM 89.2 °F 99.0 °F 74.7 °F 62% 30.05 in 10.0 mi Calm Calm - N/A   Clear
12:15 PM 89.8 °F 100.3 °F 75.2 °F 62% 30.04 in 10.0 mi Calm Calm - N/A   Scattered Clouds
12:35 PM 89.6 °F 98.7 °F 73.9 °F 60% 30.04 in 10.0 mi Calm Calm - N/A   Clear
12:55 PM 90.0 °F 99.6 °F 74.5 °F 60% 30.03 in 10.0 mi Calm Calm - N/A   Scattered Clouds
1:15 PM 89.8 °F 99.7 °F 74.5 °F 61% 30.02 in 10.0 mi Calm Calm - N/A   Mostly Cloudy
1:35 PM 87.6 °F 98.2 °F 76.1 °F 68% 30.02 in 10.0 mi Calm Calm - N/A   Overcast
1:55 PM 87.6 °F 98.7 °F 76.5 °F 69% 30.01 in 10.0 mi SW 4.6 mph - N/A Rain Light Rain
2:15 PM 85.8 °F 99.8 °F 79.5 °F 81% 30.01 in 7.0 mi Calm Calm - 0.02 in Rain , Thunderstorm Light Thunderstorms and Rain
2:35 PM 86.4 °F 100.4 °F 79.0 °F 79% 30.01 in 1.8 mi WNW 9.2 mph - 0.02 in Thunderstorm Unknown
2:55 PM 87.4 °F 98.2 °F 76.3 °F 69% 30.00 in 10.0 mi NW 3.5 mph - 0.02 in Thunderstorm Clear
3:15 PM 88.0 °F 98.5 °F 75.7 °F 67% 29.99 in 10.0 mi Calm Calm - N/A   Clear
3:35 PM 88.9 °F 99.2 °F 75.4 °F 64% 29.98 in 10.0 mi Calm Calm - N/A   Clear
3:55 PM 89.6 °F 101.0 °F 75.7 °F 64% 29.98 in 10.0 mi Calm Calm - N/A   Clear
4:15 PM 90.5 °F 100.3 °F 74.5 °F 59% 29.97 in 10.0 mi Calm Calm - N/A Thunderstorm Clear
4:35 PM 91.0 °F 99.8 °F 73.2 °F 56% 29.97 in 10.0 mi Calm Calm - N/A   Clear
4:55 PM 90.7 °F 99.6 °F 73.8 °F 57% 29.98 in 10.0 mi Calm Calm - N/A   Clear
5:15 PM 90.1 °F 98.9 °F 73.4 °F 58% 29.97 in 10.0 mi ESE 3.5 mph - N/A   Scattered Clouds
5:35 PM 80.6 °F 86.4 °F 75.7 °F 85% 30.00 in 1.0 mi East 4.6 mph 23.0 mph 0.37 in Rain Heavy Rain
5:55 PM 80.8 °F 87.2 °F 76.5 °F 87% 30.01 in 10.0 mi WSW 3.5 mph - 0.63 in Rain , Thunderstorm Light Thunderstorms and Rain
6:15 PM 78.8 °F - 75.4 °F 89% 30.01 in 10.0 mi Calm Calm - N/A Thunderstorm Overcast
6:35 PM 77.5 °F - 74.7 °F 91% 30.01 in 10.0 mi WSW 5.8 mph - N/A Thunderstorm Overcast
6:55 PM 77.0 °F - 74.1 °F 91% 30.02 in 10.0 mi West 3.5 mph - N/A Thunderstorm Overcast
7:15 PM 77.0 °F - 73.4 °F 89% 30.02 in 10.0 mi West 5.8 mph - N/A Rain , Thunderstorm Light Thunderstorms and Rain
7:35 PM 76.6 °F - 74.5 °F 93% 30.01 in 10.0 mi NW 4.6 mph - N/A   Mostly Cloudy
7:55 PM 76.5 °F - 73.8 °F 91% 30.02 in 10.0 mi Calm Calm - N/A   Clear
8:15 PM 76.5 °F - 74.3 °F 93% 30.02 in 10.0 mi Calm Calm - N/A   Mostly Cloudy
8:35 PM 75.6 °F - 74.3 °F 96% 30.02 in 10.0 mi Calm Calm - N/A   Scattered Clouds
8:55 PM 75.6 °F - 74.3 °F 96% 30.03 in 10.0 mi Calm Calm - N/A   Clear
9:15 PM 75.2 °F - 74.3 °F 97% 30.04 in 10.0 mi Calm Calm - N/A   Clear
9:35 PM 75.9 °F - 74.5 °F 95% 30.04 in 10.0 mi Calm Calm - N/A   Clear
9:55 PM 75.6 °F - 74.5 °F 96% 30.04 in 10.0 mi Calm Calm - N/A   Clear
10:15 PM 75.4 °F - 74.1 °F 96% 30.04 in 10.0 mi Calm Calm - N/A   Clear
10:35 PM 75.4 °F - 74.5 °F 97% 30.05 in 10.0 mi Calm Calm - N/A   Clear
10:55 PM 75.2 °F - 74.3 °F 97% 30.05 in 10.0 mi Calm Calm - N/A   Clear
11:15 PM 75.2 °F - 74.3 °F 97% 30.05 in 7.0 mi Calm Calm - N/A   Clear
11:35 PM 74.5 °F - 73.8 °F 98% 30.04 in 7.0 mi Calm Calm - N/A   Clear
11:55 PM 74.3 °F - 73.8 °F 98% 30.04 in 7.0 mi Calm Calm - N/A   Clear